Presure
98 151 101 135 126 135 152 156 153 131 159 130 126 147 153 118 116 112 105 151 139 97 98 133 141 120 138 133 135 113 147 147 156
126 149 117 128 136 132 134 132 130 118 123 139 123 129 137 122 121 136 140 115 94 127 142 112 153 136 148 142 139 148 148 154 163
143 147 149 133 127 141 123 123 122 134 128 137 142 115 145 96 123 116 144 139 96 144 133 139 135 152 154 134 115 139 151 159 161
152 143 146 131 132 142 119 122 132 120 149 111 153 137 103 95 106 134 150 113 136 138 137 161 116 154 132 149 148 156 156 157 179
139 144 141 135 144 122 121 117 109 117 138 99 153 97 137 140 151 135 140 141 140 144 136 147 154 144 150 152 155 155 157 171 162
137 124 143 147 147 109 105 119 111 143 115 150 99 150 141 152 149 139 146 124 143 135 156 151 158 141 150 155 158 158 166 181 181
128 138 112 109 144 153 119 136 138 144 142 157 156 140 151 122 152 139 133 113 152 147 147 148 155 148 151 158 160 163 173 181 180
154 135 127 145 150 152 157 144 130 149 143 146 104 153 139 142 107 140 124 150 149 143 143 149 149 153 155 157 159 172 173 175 177
140 104 137 147 141 150 152 150 101 138 151 150 159 148 138 135 135 134 157 132 142 145 153 155 150 158 156 156 164 175 176 170 182
139 133 125 138 144 143 103 141 151 155 148 152 147 102 124 134 145 159 151 139 145 145 155 149 163 158 151 161 169 171 178 174 190
136 120 151 139 138 143 146 154 153 152 161 153 108 147 134 141 153 153 136 144 148 152 149 159 158 153 154 162 176 169 167 173 185
87 158 151 89 89 156 149 146 151 144 139 162 166 148 156 156 139 137 144 144 158 145 149 156 155 150 162 172 165 176 160 187 172
159 155 151 149 147 93 158 157 141 151 151 152 157 164 156 139 146 149 144 159 140 155 159 155 158 160 166 173 167 179 171 188 182
153 104 158 145 155 127 151 151 148 171 168 150 153 157 142 151 151 149 154 148 150 150 155 162 156 162 173 160 173 167 176 174 187
163 136 150 156 153 157 166 137 163 146 151 154 148 163 151 154 152 160 145 153 157 161 160 161 161 170 171 169 178 172 187 191 197
178 171 134 152 148 157 159 149 157 150 160 155 164 152 165 158 157 142 155 155 159 165 158 162 168 174 172 162 177 165 192 188 224
152 150 150 146 152 146 160 153 156 162 154 163 142 153 162 147 163 155 158 162 157 156 160 177 168 185 174 175 179 195 195 205 236
141 142 158 150 159 151 156 153 154 144 154 140 154 150 152 159 158 163 152 157 154 164 176 169 177 175 182 169 194 198 188 243 169
163 147 157 152 153 152 149 142 156 156 150 151 145 147 156 151 155 160 161 160 171 172 167 164 173 176 177 188 193 201 195 235 242
138 152 160 157 157 159 159 163 154 146 158 159 153 158 147 157 155 166 153 166 167 168 178 176 176 181 188 187 198 237 242 247 253
Wind_Speed
27 43 29 38 31 33 42 44 42 32 46 32 34 36 40 38 39 41 36 41 39 31 33 53 50 48 56 51 60 44 63 66 75
35 44 35 36 36 33 32 31 32 33 34 36 36 36 37 41 41 37 43 39 30 45 46 48 55 58 57 62 62 64 66 74 80
44 44 43 38 36 38 35 34 35 37 36 40 43 39 38 32 45 49 40 42 33 47 56 54 58 60 63 62 41 57 68 79 77
49 45 45 39 39 43 37 37 39 38 45 35 46 39 35 32 41 46 43 52 47 49 56 63 45 63 63 64 65 73 76 78 86
46 46 45 44 45 40 39 39 37 40 42 32 47 34 41 40 44 50 45 47 50 53 56 57 63 61 65 67 72 73 79 84 74
48 42 47 49 48 34 31 43 40 46 42 48 36 49 42 47 42 43 52 55 53 57 64 62 70 66 67 73 75 78 84 88 85
49 49 37 36 50 52 37 48 48 47 47 53 51 46 48 44 50 45 53 40 59 58 59 62 70 65 69 74 80 82 89 90 86
56 50 47 52 53 53 54 48 50 51 48 48 44 53 44 42 37 57 51 58 58 58 59 66 65 72 72 77 81 91 90 88 87
52 37 52 55 51 53 53 52 37 51 52 52 59 52 42 48 51 54 63 62 59 59 69 71 69 78 77 77 90 94 93 83 93
56 54 49 52 53 52 36 51 55 55 51 56 47 41 44 53 55 64 60 60 61 62 75 67 84 78 72 87 95 92 95 91 98
57 45 60 54 53 54 56 58 56 55 61 55 38 50 54 52 59 63 60 60 63 72 68 81 80 75 79 89 97 91 86 91 94
29 63 61 32 33 59 57 54 55 52 52 65 67 52 61 60 57 60 59 61 76 63 69 79 80 73 91 98 89 97 79 100 88
66 64 63 61 59 40 62 60 54 58 58 60 64 70 63 57 59 64 60 77 62 77 83 80 82 88 96 97 92 99 91 101 94
63 38 66 58 62 50 57 56 58 70 70 58 62 66 58 65 69 67 72 66 70 72 81 91 82 91 99 84 96 89 96 88 99
70 60 63 64 63 65 67 57 68 58 62 63 59 75 66 73 73 81 65 74 80 87 87 90 90 98 95 91 100 92 103 107 108
72 69 61 64 61 63 64 59 65 60 69 64 74 68 81 78 77 64 75 77 84 93 87 92 95 99 96 84 100 86 103 103 97
65 63 65 62 62 60 68 65 67 72 64 73 62 74 82 67 87 77 82 89 84 82 90 105 95 107 98 100 101 110 109 111 89
60 62 68 64 68 64 69 66 65 58 66 60 74 75 78 83 85 91 77 81 81 94 106 98 104 102 107 94 114 115 104 95 67
76 67 70 67 68 65 62 58 72 71 66 71 66 71 83 80 87 96 96 90 101 102 98 93 104 102 105 113 117 120 115 100 93
63 69 74 71 75 76 75 80 70 62 80 83 78 84 74 88 85 99 86 102 102 104 112 110 107 110 116 115 123 101 97 94 86
Wind_Direction
287 257 284 271 277 277 285 292 292 289 297 292 293 304 307 298 301 301 306 318 304 315 317 302 311 318 306 315 311 315 322 321 324
262 261 272 270 272 273 278 281 283 285 289 293 296 299 303 299 304 300 309 311 315 318 309 314 321 304 321 320 316 323 323 324 324
261 264 267 267 269 274 274 278 280 287 287 293 297 295 303 305 299 301 312 301 314 313 300 305 303 322 326 311 317 318 322 324 322
262 264 267 267 270 276 276 278 280 285 294 293 297 296 296 303 303 306 314 306 313 302 302 317 316 323 310 319 319 324 325 322 326
262 267 268 268 273 272 277 282 288 288 287 295 296 296 294 298 309 305 305 307 306 309 300 317 319 316 320 321 323 325 322 325 321
261 267 270 273 276 284 287 282 289 287 293 293 295 295 295 305 307 300 306 310 309 299 314 319 320 312 319 322 323 322 322 327 327
264 265 274 280 274 279 280 276 286 287 289 294 295 294 301 303 305 301 296 312 314 313 315 318 317 318 319 323 324 323 325 326 326
265 265 268 273 276 279 282 283 279 288 290 294 295 297 293 297 306 300 296 313 313 307 311 316 316 316 323 324 323 324 325 325 325
265 270 268 273 276 279 281 283 286 284 290 293 295 295 301 288 290 293 310 296 304 310 316 317 317 320 323 322 323 325 325 321 326
264 265 269 272 274 278 285 280 286 288 289 289 293 299 300 287 304 305 308 297 307 311 315 314 317 321 317 322 322 322 325 323 326
262 272 270 270 272 277 280 283 287 289 291 291 294 295 284 296 304 308 294 305 310 312 312 314 319 318 319 319 322 320 320 322 324
271 268 270 284 284 276 279 282 285 286 284 292 291 294 301 306 293 293 301 304 309 306 312 317 318 313 319 319 318 320 317 322 320
266 268 271 273 276 283 280 282 280 287 294 295 297 294 301 291 300 301 298 308 300 312 315 315 314 317 317 317 317 318 318 321 321
269 267 271 274 278 279 281 283 283 284 289 292 294 298 294 303 302 300 306 304 307 309 313 313 313 314 314 313 316 317 319 319 322
267 266 273 275 276 280 283 275 286 284 289 293 295 296 300 301 300 302 299 307 310 311 311 311 311 312 313 314 317 317 319 322 322
264 261 268 271 273 279 284 282 286 287 290 294 295 301 296 299 300 295 306 308 309 310 310 309 310 312 313 314 316 316 318 320 319
262 264 268 270 276 274 278 283 284 287 291 297 290 299 297 297 301 304 306 306 307 307 307 310 310 312 313 315 315 317 319 320 319
261 262 271 270 277 275 279 280 286 283 293 285 297 297 300 302 302 303 301 305 303 307 309 309 311 312 314 314 315 317 317 318 312
269 270 272 272 274 274 277 277 290 292 291 292 289 293 299 299 303 303 304 303 307 307 309 309 311 312 313 313 315 317 317 316 314
261 268 272 274 277 280 285 288 289 284 291 292 295 296 294 298 298 299 300 304 306 307 307 308 310 311 313 313 314 316 316 315 313